Location: Deuil
(48.9767°N, 2.3272°E)
Time: 23:23:31
(UTC+00:00)

Cosmos 2228 - Pass Details

Date: 31 May 2022
Orbit: 586 x 617 km, 82.5° (Epoch: 03 July)

Event Time Altitude Azimuth Distance (km) Brightness Sun altitude
Rises 02:55:49 0° 336° (NNW) 2,885 6.8 -7.8°
Reaches altitude 10° 02:58:35 10° 318° (NW) 1,969 5.7 -7.4°
Maximum altitude 03:01:34 18° 275° (W) 1,487 4.7 -7.1°
Drops below altitude 10° 03:04:31 10° 231° (SW) 1,944 4.9 -6.8°
Enters shadow 03:04:58 - 227° (SW) 2,071 5.0 -6.7°
